When you browse on this site, cookies collect data to enhance your experience and personalize the content and advertising you see.
Visit our Privacy Policy to learn more. By continuing to use the site, you agree to this use of cookies and data.
  • In Österreich
  • Länderverzeichnis
  • Für 7 Tage
  • Wassertemperatur
  • Wetterkarte
  • News
  • Widgets
  • user-avatar
    Anmelden

    Stündliche Wetter Tlanalapan

    Heute, 17 November, Sonntag

    Zeit Temperatur Niederschläge Wind Luftdruck Luftfeuchtigkeit
    00:00 +11°C° 0 mm 0 m/S 567 mmHg 86%
    01:00 +10°C° 0 mm 0 m/S 566 mmHg 86%
    02:00 +10°C° 0 mm 0 m/S 566 mmHg 86%
    03:00 +10°C° 0 mm 0 m/S 566 mmHg 87%
    04:00 +10°C° 0 mm 0 m/S 566 mmHg 87%
    05:00 +10°C° 0 mm 0 m/S 566 mmHg 88%
    06:00 +11°C° 0 mm 0 m/S 567 mmHg 80%
    07:00 +13°C° 0 mm 0 m/S 568 mmHg 73%
    08:00 +15°C° 0 mm 0 m/S 569 mmHg 65%
    09:00 +18°C° 0 mm 1 m/S 569 mmHg 59%
    10:00 +18°C° 0 mm 2 m/S 570 mmHg 52%
    11:00 +20°C° 0 mm 2 m/S 570 mmHg 46%
    12:00 +20°C° 0 mm 3 m/S 569 mmHg 47%
    13:00 +19°C° 0 mm 4 m/S 569 mmHg 48%
    14:00 +19°C° 0 mm 4 m/S 568 mmHg 49%
    15:00 +18°C° 0 mm 4 m/S 568 mmHg 56%
    16:00 +17°C° 0 mm 3 m/S 567 mmHg 64%
    17:00 +14°C° 0 mm 3 m/S 567 mmHg 71%
    18:00 +15°C° 0 mm 2 m/S 567 mmHg 72%
    19:00 +14°C° 0 mm 2 m/S 567 mmHg 73%
    20:00 +13°C° 0 mm 1 m/S 568 mmHg 74%
    21:00 +13°C° 0 mm 1 m/S 567 mmHg 74%
    22:00 +13°C° 0 mm 1 m/S 567 mmHg 74%
    23:00 +11°C° 0 mm 0 m/S 567 mmHg 74%

    Morgen, 18 November, Montag

    Zeit Temperatur Niederschläge Wind Luftdruck Luftfeuchtigkeit
    00:00 +11°C° 0 mm 0 m/S 567 mmHg 73%
    01:00 +11°C° 0 mm 0 m/S 566 mmHg 72%
    02:00 +11°C° 0 mm 0 m/S 566 mmHg 71%
    03:00 +11°C° 0 mm 0 m/S 566 mmHg 72%
    04:00 +10°C° 0 mm 0 m/S 566 mmHg 73%
    05:00 +10°C° 0 mm 0 m/S 565 mmHg 75%
    06:00 +11°C° 0 mm 0 m/S 567 mmHg 68%
    07:00 +13°C° 0 mm 0 m/S 568 mmHg 62%
    08:00 +14°C° 0 mm 0 m/S 569 mmHg 55%
    09:00 +16°C° 0 mm 0 m/S 569 mmHg 52%
    10:00 +19°C° 0 mm 1 m/S 569 mmHg 49%
    11:00 +20°C° 0 mm 1 m/S 569 mmHg 45%
    12:00 +20°C° 0 mm 2 m/S 569 mmHg 46%
    13:00 +20°C° 0 mm 2 m/S 569 mmHg 46%
    14:00 +20°C° 0 mm 2 m/S 568 mmHg 46%
    15:00 +19°C° 0 mm 3 m/S 568 mmHg 55%
    16:00 +17°C° 0 mm 3 m/S 567 mmHg 65%
    17:00 +16°C° 0 mm 3 m/S 567 mmHg 74%
    18:00 +15°C° 0.2 mm 2 m/S 567 mmHg 75%
    19:00 +15°C° 0.2 mm 2 m/S 567 mmHg 76%
    20:00 +15°C° 0.2 mm 1 m/S 568 mmHg 77%
    21:00 +15°C° 0.1 mm 1 m/S 568 mmHg 77%
    22:00 +14°C° 0.1 mm 1 m/S 567 mmHg 77%
    23:00 +13°C° 0.1 mm 0 m/S 567 mmHg 77%

    übermorgen, 19 November, Dienstag

    Zeit Temperatur Niederschläge Wind Luftdruck Luftfeuchtigkeit
    00:00 +12°C° 0 mm 0 m/S 567 mmHg 79%
    01:00 +12°C° 0 mm 0 m/S 566 mmHg 81%
    02:00 +11°C° 0 mm 0 m/S 566 mmHg 83%
    03:00 +11°C° 0 mm 0 m/S 566 mmHg 84%
    04:00 +11°C° 0 mm 0 m/S 565 mmHg 86%
    05:00 +10°C° 0 mm 0 m/S 565 mmHg 87%
    06:00 +12°C° 0 mm 0 m/S 566 mmHg 80%
    07:00 +14°C° 0 mm 1 m/S 567 mmHg 73%
    08:00 +15°C° 0 mm 1 m/S 568 mmHg 66%
    09:00 +18°C° 0 mm 1 m/S 569 mmHg 60%
    10:00 +19°C° 0 mm 1 m/S 569 mmHg 54%
    11:00 +20°C° 0 mm 1 m/S 569 mmHg 47%
    12:00 +20°C° 0 mm 1 m/S 569 mmHg 46%
    13:00 +21°C° 0 mm 1 m/S 569 mmHg 45%
    14:00 +21°C° 0 mm 1 m/S 568 mmHg 44%
    15:00 +19°C° 0 mm 2 m/S 568 mmHg 51%
    16:00 +18°C° 0 mm 2 m/S 568 mmHg 58%
    17:00 +17°C° 0 mm 2 m/S 567 mmHg 64%
    18:00 +16°C° 0 mm 2 m/S 567 mmHg 71%
    19:00 +15°C° 0 mm 2 m/S 567 mmHg 77%
    20:00 +14°C° 0 mm 1 m/S 567 mmHg 84%
    21:00 +14°C° 0 mm 1 m/S 567 mmHg 84%
    22:00 +13°C° 0 mm 1 m/S 567 mmHg 84%
    23:00 +13°C° 0 mm 1 m/S 567 mmHg 84%

    20 November, Mittwoch

    Zeit Temperatur Niederschläge Wind Luftdruck Luftfeuchtigkeit
    00:00 +13°C° 0 mm 1 m/S 566 mmHg 85%
    01:00 +13°C° 0 mm 1 m/S 566 mmHg 86%
    02:00 +13°C° 0 mm 1 m/S 566 mmHg 88%
    03:00 +12°C° 0 mm 1 m/S 566 mmHg 88%
    04:00 +12°C° 0 mm 1 m/S 566 mmHg 88%
    05:00 +12°C° 0 mm 1 m/S 566 mmHg 88%
    06:00 +13°C° 0 mm 1 m/S 567 mmHg 81%
    07:00 +15°C° 0 mm 1 m/S 568 mmHg 75%
    08:00 +16°C° 0 mm 1 m/S 569 mmHg 69%
    09:00 +19°C° 0 mm 1 m/S 569 mmHg 61%
    10:00 +20°C° 0 mm 1 m/S 569 mmHg 54%
    11:00 +22°C° 0 mm 1 m/S 570 mmHg 47%
    12:00 +22°C° 0 mm 1 m/S 569 mmHg 45%
    13:00 +23°C° 0 mm 1 m/S 569 mmHg 42%
    14:00 +23°C° 0 mm 1 m/S 569 mmHg 39%
    15:00 +21°C° 0 mm 2 m/S 569 mmHg 46%
    16:00 +19°C° 0 mm 2 m/S 568 mmHg 53%
    17:00 +18°C° 0 mm 2 m/S 568 mmHg 60%
    18:00 +17°C° 0 mm 2 m/S 568 mmHg 64%
    19:00 +16°C° 0 mm 2 m/S 568 mmHg 68%
    20:00 +15°C° 0 mm 2 m/S 568 mmHg 72%
    21:00 +15°C° 0 mm 1 m/S 567 mmHg 71%
    22:00 +15°C° 0 mm 1 m/S 567 mmHg 70%
    23:00 +15°C° 0 mm 1 m/S 567 mmHg 69%

    21 November, Donnerstag

    Zeit Temperatur Niederschläge Wind Luftdruck Luftfeuchtigkeit
    00:00 +14°C° 0 mm 1 m/S 567 mmHg 69%
    01:00 +14°C° 0 mm 1 m/S 567 mmHg 70%
    02:00 +14°C° 0 mm 1 m/S 566 mmHg 71%
    03:00 +13°C° 0 mm 1 m/S 566 mmHg 73%
    04:00 +13°C° 0 mm 1 m/S 566 mmHg 75%
    05:00 +13°C° 0 mm 1 m/S 566 mmHg 77%
    06:00 +14°C° 0 mm 1 m/S 567 mmHg 73%
    07:00 +14°C° 0 mm 0 m/S 568 mmHg 68%
    08:00 +16°C° 0 mm 0 m/S 569 mmHg 64%
    09:00 +17°C° 0 mm 0 m/S 570 mmHg 56%
    10:00 +21°C° 0 mm 1 m/S 570 mmHg 49%
    11:00 +22°C° 0 mm 1 m/S 570 mmHg 42%
    12:00 +22°C° 0 mm 1 m/S 570 mmHg 40%
    13:00 +23°C° 0 mm 1 m/S 570 mmHg 39%
    14:00 +23°C° 0 mm 1 m/S 569 mmHg 37%
    15:00 +21°C° 0 mm 2 m/S 569 mmHg 44%
    16:00 +19°C° 0 mm 2 m/S 568 mmHg 51%
    17:00 +18°C° 0 mm 2 m/S 568 mmHg 59%
    18:00 +17°C° 0 mm 2 m/S 568 mmHg 63%
    19:00 +18°C° 0 mm 1 m/S 568 mmHg 67%
    20:00 +16°C° 0 mm 1 m/S 568 mmHg 71%
    21:00 +15°C° 0 mm 1 m/S 567 mmHg 72%
    22:00 +15°C° 0 mm 1 m/S 567 mmHg 73%
    23:00 +15°C° 0 mm 1 m/S 567 mmHg 74%

    22 November, Freitag

    Zeit Temperatur Niederschläge Wind Luftdruck Luftfeuchtigkeit
    00:00 +14°C° 0 mm 1 m/S 567 mmHg 76%
    01:00 +14°C° 0 mm 1 m/S 566 mmHg 78%
    02:00 +14°C° 0 mm 1 m/S 566 mmHg 80%
    03:00 +13°C° 0 mm 1 m/S 566 mmHg 81%
    04:00 +12°C° 0 mm 0 m/S 566 mmHg 83%
    05:00 +12°C° 0 mm 0 m/S 566 mmHg 84%
    06:00 +13°C° 0 mm 0 m/S 567 mmHg 78%
    07:00 +16°C° 0 mm 1 m/S 568 mmHg 72%
    08:00 +18°C° 0 mm 1 m/S 569 mmHg 66%
    09:00 +19°C° 0 mm 1 m/S 569 mmHg 60%
    10:00 +21°C° 0 mm 1 m/S 569 mmHg 55%
    11:00 +21°C° 0 mm 2 m/S 570 mmHg 49%
    12:00 +21°C° 0.1 mm 2 m/S 569 mmHg 47%
    13:00 +23°C° 0.1 mm 2 m/S 569 mmHg 46%
    14:00 +22°C° 0.1 mm 3 m/S 568 mmHg 45%
    15:00 +20°C° 0.2 mm 3 m/S 568 mmHg 52%
    16:00 +19°C° 0.2 mm 2 m/S 567 mmHg 59%
    17:00 +18°C° 0.2 mm 2 m/S 567 mmHg 67%
    18:00 +17°C° 0.1 mm 2 m/S 567 mmHg 70%
    19:00 +16°C° 0.1 mm 2 m/S 567 mmHg 73%
    20:00 +15°C° 0.1 mm 1 m/S 567 mmHg 77%
    21:00 +15°C° 0 mm 1 m/S 567 mmHg 77%
    22:00 +14°C° 0 mm 1 m/S 567 mmHg 76%
    23:00 +14°C° 0 mm 1 m/S 567 mmHg 76%
    Mehr zeigen